Location: Carnoy
(49.9849°N, 2.7558°E)
Time: 18:29:02
(UTC+00:00)

Cosmos 1356 Rocket - Pass Details

Date: 24 January 2020
Orbit: 543 x 598 km, 81.2° (Epoch: 28 February)

Event Time Altitude Azimuth Distance (km) Brightness Sun altitude
Rises 17:47:47 0° 354° (N) 2,731 6.8 -12.5°
Reaches altitude 10° 17:50:06 10° 4° (N) 1,838 5.8 -12.9°
Maximum altitude 17:53:49 34° 71° (ENE) 934 3.9 -13.5°
Drops below altitude 10° 17:57:32 10° 137° (SE) 1,849 5.7 -14.0°
Sets 17:59:52 0° 146° (SSE) 2,750 6.7 -14.4°
